STARLINK-3627

decayed
NORAD ID: 51797 Int'l Des: 2022-017 Owner: SPXS Country: US Constellation: starlink
LEOCIRCULAR
Gruppe

Über STARLINK-3627

Beschreibung wird geladen...

Höhenverlauf

Altitude vs Time

uPlot chart will show altitude changes over time

Zweizeiliger Elementsatz

1 51797U 22017AF 24204.72159422 .29981285 12196-4 30363-2 0 9999
2 51797 53.1105 48.5944 0011572 247.0395 158.0460 16.36954335135419
Epoch: 22. Juli 2024 • Age: 10142 hours

Aktueller Status

Position data unavailable
Startdatum 25. Feb. 2022
Alter 3.5 years
Verglühungsdatum 22. Juli 2024
Typ internet

Technische Details

Klassifizierung Payload
Masse 297.00 kg
Trockenmasse 275.00 kg
Gesamtmasse 297.00 kg
Länge 0.20 m
Durchmesser 2.80 m
Spannweite 9.00 m
Form Box + pan
Hersteller SPXS
Bus-Typ Starlink
Phasenstatus Reentered
Besitzer/Staat SPXS/US

Große Konstellationen

Loading constellations...